History Data

Date (GMT-7:00) CPM ACPM uSv/h Latitude Longitude Altitude CO CO2 TVOC HCHO Air Pressure Temperature Humidity Type
2026-05-18 17:53:47 25 20.80 0.125000 41.649648 41.62752893 0 0 0 0 0 0 0 0 STD5.60
2026-05-18 17:48:44 21 20.20 0.105000 41.649648 41.62752893 0 0 0 0 0 0 0 0 STD5.60
2026-05-18 17:43:42 22 19.30 0.110000 41.649648 41.62752893 0 0 0 0 0 0 0 0 STD5.60
2026-05-18 17:38:41 18 18.90 0.090000 41.649648 41.62752893 0 0 0 0 0 0 0 0 STD5.60
2026-05-18 17:33:38 21 18.20 0.105000 41.649648 41.62752893 0 0 0 0 0 0 0 0 STD5.60
2026-05-18 17:28:36 11 16.50 0.055000 41.649648 41.62752893 0 0 0 0 0 0 0 0 STD5.60
2026-05-18 17:23:34 16 15.80 0.080000 41.649648 41.62752893 0 0 0 0 0 0 0 0 STD5.60
2026-05-18 17:18:32 20 16.50 0.100000 41.649648 41.62752893 0 0 0 0 0 0 0 0 STD5.60
2026-05-18 17:13:27 17 17.70 0.085000 41.649648 41.62752893 0 0 0 0 0 0 0 0 STD5.60
2026-05-18 17:08:26 21 18.80 0.105000 41.649648 41.62752893 0 0 0 0 0 0 0 0 STD5.60
2026-05-18 17:03:24 23 21.00 0.115000 41.649648 41.62752893 0 0 0 0 0 0 0 0 STD5.60
2026-05-18 16:58:22 17 20.50 0.085000 41.649648 41.62752893 0 0 0 0 0 0 0 0 STD5.60
2026-05-18 16:53:20 18 17.90 0.090000 41.649648 41.62752893 0 0 0 0 0 0 0 0 STD5.60
2026-05-18 16:48:17 16 18.30 0.080000 41.649648 41.62752893 0 0 0 0 0 0 0 0 STD5.60
2026-05-18 16:43:15 16 18.20 0.080000 41.649648 41.62752893 0 0 0 0 0 0 0 0 STD5.60
2026-05-18 16:38:13 21 16.70 0.105000 41.649648 41.62752893 0 0 0 0 0 0 0 0 STD5.60
2026-05-18 16:33:11 15 17.70 0.075000 41.649648 41.62752893 0 0 0 0 0 0 0 0 STD5.60
2026-05-18 16:28:09 24 16.90 0.120000 41.649648 41.62752893 0 0 0 0 0 0 0 0 STD5.60
2026-05-18 16:23:07 13 14.90 0.065000 41.649648 41.62752893 0 0 0 0 0 0 0 0 STD5.60
2026-05-18 16:18:05 16 17.80 0.080000 41.649648 41.62752893 0 0 0 0 0 0 0 0 STD5.60
2026-05-18 16:12:59 15 17.50 0.075000 41.649648 41.62752893 0 0 0 0 0 0 0 0 STD5.60
2026-05-18 16:07:58 19 16.10 0.095000 41.649648 41.62752893 0 0 0 0 0 0 0 0 STD5.60
2026-05-18 16:02:55 20 17.00 0.100000 41.649648 41.62752893 0 0 0 0 0 0 0 0 STD5.60
2026-05-18 15:57:53 17 18.60 0.085000 41.649648 41.62752893 0 0 0 0 0 0 0 0 STD5.60
2026-05-18 15:52:51 21 18.80 0.105000 41.649648 41.62752893 0 0 0 0 0 0 0 0 STD5.60
2026-05-18 15:47:49 12 19.10 0.060000 41.649648 41.62752893 0 0 0 0 0 0 0 0 STD5.60
2026-05-18 15:42:47 12 19.90 0.060000 41.649648 41.62752893 0 0 0 0 0 0 0 0 STD5.60
2026-05-18 15:37:46 15 18.50 0.075000 41.649648 41.62752893 0 0 0 0 0 0 0 0 STD5.60
2026-05-18 15:32:43 14 16.40 0.070000 41.649648 41.62752893 0 0 0 0 0 0 0 0 STD5.60
2026-05-18 15:27:41 14 16.90 0.070000 41.649648 41.62752893 0 0 0 0 0 0 0 0 STD5.60
2026-05-18 15:22:39 25 17.80 0.125000 41.649648 41.62752893 0 0 0 0 0 0 0 0 STD5.60
2026-05-18 15:17:37 18 18.00 0.090000 41.649648 41.62752893 0 0 0 0 0 0 0 0 STD5.60
2026-05-18 15:12:31 19 18.20 0.095000 41.649648 41.62752893 0 0 0 0 0 0 0 0 STD5.60
2026-05-18 15:07:30 19 17.80 0.095000 41.649648 41.62752893 0 0 0 0 0 0 0 0 STD5.60
2026-05-18 15:02:27 16 16.90 0.080000 41.649648 41.62752893 0 0 0 0 0 0 0 0 STD5.60
2026-05-18 14:57:25 13 15.60 0.065000 41.649648 41.62752893 0 0 0 0 0 0 0 0 STD5.60
2026-05-18 14:52:23 12 17.80 0.060000 41.649648 41.62752893 0 0 0 0 0 0 0 0 STD5.60
2026-05-18 14:47:21 20 20.20 0.100000 41.649648 41.62752893 0 0 0 0 0 0 0 0 STD5.60
2026-05-18 14:42:19 20 17.70 0.100000 41.649648 41.62752893 0 0 0 0 0 0 0 0 STD5.60
2026-05-18 14:37:17 11 16.70 0.055000 41.649648 41.62752893 0 0 0 0 0 0 0 0 STD5.60
2026-05-18 14:32:15 15 16.60 0.075000 41.649648 41.62752893 0 0 0 0 0 0 0 0 STD5.60
2026-05-18 14:27:13 17 16.90 0.085000 41.649648 41.62752893 0 0 0 0 0 0 0 0 STD5.60
2026-05-18 14:22:11 19 18.90 0.095000 41.649648 41.62752893 0 0 0 0 0 0 0 0 STD5.60
2026-05-18 14:17:09 19 18.50 0.095000 41.649648 41.62752893 0 0 0 0 0 0 0 0 STD5.60
2026-05-18 14:12:04 18 19.30 0.090000 41.649648 41.62752893 0 0 0 0 0 0 0 0 STD5.60
2026-05-18 14:07:02 17 19.60 0.085000 41.649648 41.62752893 0 0 0 0 0 0 0 0 STD5.60
2026-05-18 14:01:59 28 17.70 0.140000 41.649648 41.62752893 0 0 0 0 0 0 0 0 STD5.60
2026-05-18 13:56:57 15 17.50 0.075000 41.649648 41.62752893 0 0 0 0 0 0 0 0 STD5.60
2026-05-18 13:51:55 25 18.80 0.125000 41.649648 41.62752893 0 0 0 0 0 0 0 0 STD5.60
2026-05-18 13:46:53 25 18.50 0.125000 41.649648 41.62752893 0 0 0 0 0 0 0 0 STD5.60
2026-05-18 13:41:51 15 19.30 0.075000 41.649648 41.62752893 0 0 0 0 0 0 0 0 STD5.60
2026-05-18 13:36:49 20 18.60 0.100000 41.649648 41.62752893 0 0 0 0 0 0 0 0 STD5.60
2026-05-18 13:31:47 19 17.00 0.095000 41.649648 41.62752893 0 0 0 0 0 0 0 0 STD5.60
2026-05-18 13:26:45 18 16.20 0.090000 41.649648 41.62752893 0 0 0 0 0 0 0 0 STD5.60
2026-05-18 13:21:42 18 15.60 0.090000 41.649648 41.62752893 0 0 0 0 0 0 0 0 STD5.60
2026-05-18 13:16:40 14 17.90 0.070000 41.649648 41.62752893 0 0 0 0 0 0 0 0 STD5.60
2026-05-18 13:11:36 21 20.40 0.105000 41.649648 41.62752893 0 0 0 0 0 0 0 0 STD5.60
2026-05-18 13:06:34 22 17.70 0.110000 41.649648 41.62752893 0 0 0 0 0 0 0 0 STD5.60
2026-05-18 13:01:32 13 15.80 0.065000 41.649648 41.62752893 0 0 0 0 0 0 0 0 STD5.60
2026-05-18 12:56:30 19 17.50 0.095000 41.649648 41.62752893 0 0 0 0 0 0 0 0 STD5.60
2026-05-18 12:51:28 17 19.00 0.085000 41.649648 41.62752893 0 0 0 0 0 0 0 0 STD5.60
2026-05-18 12:46:26 16 17.90 0.080000 41.649648 41.62752893 0 0 0 0 0 0 0 0 STD5.60
2026-05-18 12:41:24 16 17.60 0.080000 41.649648 41.62752893 0 0 0 0 0 0 0 0 STD5.60
2026-05-18 12:36:22 18 18.80 0.090000 41.649648 41.62752893 0 0 0 0 0 0 0 0 STD5.60
2026-05-18 12:31:21 29 17.10 0.145000 41.649648 41.62752893 0 0 0 0 0 0 0 0 STD5.60
2026-05-18 12:26:17 13 16.20 0.065000 41.649648 41.62752893 0 0 0 0 0 0 0 0 STD5.60
2026-05-18 12:21:15 11 18.00 0.055000 41.649648 41.62752893 0 0 0 0 0 0 0 0 STD5.60
2026-05-18 12:16:13 19 18.60 0.095000 41.649648 41.62752893 0 0 0 0 0 0 0 0 STD5.60
2026-05-18 12:11:09 13 17.70 0.065000 41.649648 41.62752893 0 0 0 0 0 0 0 0 STD5.60
2026-05-18 12:06:08 14 18.10 0.070000 41.649648 41.62752893 0 0 0 0 0 0 0 0 STD5.60
2026-05-18 12:01:05 20 17.80 0.100000 41.649648 41.62752893 0 0 0 0 0 0 0 0 STD5.60
2026-05-18 11:56:03 26 18.20 0.130000 41.649648 41.62752893 0 0 0 0 0 0 0 0 STD5.60
2026-05-18 11:51:01 21 17.90 0.105000 41.649648 41.62752893 0 0 0 0 0 0 0 0 STD5.60
2026-05-18 11:45:59 21 18.70 0.105000 41.649648 41.62752893 0 0 0 0 0 0 0 0 STD5.60
2026-05-18 11:40:56 17 19.90 0.085000 41.649648 41.62752893 0 0 0 0 0 0 0 0 STD5.60
2026-05-18 11:35:55 19 18.10 0.095000 41.649648 41.62752893 0 0 0 0 0 0 0 0 STD5.60
2026-05-18 11:30:53 16 16.30 0.080000 41.649648 41.62752893 0 0 0 0 0 0 0 0 STD5.60
2026-05-18 11:25:51 12 15.00 0.060000 41.649648 41.62752893 0 0 0 0 0 0 0 0 STD5.60
2026-05-18 11:20:49 11 11.40 0.055000 41.649648 41.62752893 0 0 0 0 0 0 0 0 STD5.60
2026-05-18 11:15:47 17 4.30 0.085000 41.649648 41.62752893 0 0 0 0 0 0 0 0 STD5.60
2026-05-18 11:10:43 16 16.80 0.080000 41.649648 41.62752893 0 0 0 0 0 0 0 0 STD5.60
2026-05-18 11:05:41 19 16.40 0.095000 41.649648 41.62752893 0 0 0 0 0 0 0 0 STD5.60
2026-05-18 11:00:40 15 17.10 0.075000 41.649648 41.62752893 0 0 0 0 0 0 0 0 STD5.60
2026-05-18 10:55:37 10 17.10 0.050000 41.649648 41.62752893 0 0 0 0 0 0 0 0 STD5.60
2026-05-18 10:50:35 13 17.40 0.065000 41.649648 41.62752893 0 0 0 0 0 0 0 0 STD5.60
2026-05-18 10:45:33 18 18.00 0.090000 41.649648 41.62752893 0 0 0 0 0 0 0 0 STD5.60
2026-05-18 10:40:31 24 17.30 0.120000 41.649648 41.62752893 0 0 0 0 0 0 0 0 STD5.60
2026-05-18 10:35:29 14 16.90 0.070000 41.649648 41.62752893 0 0 0 0 0 0 0 0 STD5.60
2026-05-18 10:30:27 19 17.70 0.095000 41.649648 41.62752893 0 0 0 0 0 0 0 0 STD5.60
2026-05-18 10:25:25 14 18.40 0.070000 41.649648 41.62752893 0 0 0 0 0 0 0 0 STD5.60
2026-05-18 10:20:23 17 17.90 0.085000 41.649648 41.62752893 0 0 0 0 0 0 0 0 STD5.60
2026-05-18 10:15:21 16 18.00 0.080000 41.649648 41.62752893 0 0 0 0 0 0 0 0 STD5.60
2026-05-18 10:10:16 17 17.30 0.085000 41.649648 41.62752893 0 0 0 0 0 0 0 0 STD5.60
2026-05-18 10:05:14 16 19.00 0.080000 41.649648 41.62752893 0 0 0 0 0 0 0 0 STD5.60
2026-05-18 10:00:12 21 20.60 0.105000 41.649648 41.62752893 0 0 0 0 0 0 0 0 STD5.60
2026-05-18 09:55:10 32 17.60 0.160000 41.649648 41.62752893 0 0 0 0 0 0 0 0 STD5.60
2026-05-18 09:50:08 14 17.10 0.070000 41.649648 41.62752893 0 0 0 0 0 0 0 0 STD5.60
2026-05-18 09:45:06 13 17.90 0.065000 41.649648 41.62752893 0 0 0 0 0 0 0 0 STD5.60
2026-05-18 09:40:04 21 18.60 0.105000 41.649648 41.62752893 0 0 0 0 0 0 0 0 STD5.60
2026-05-18 09:35:02 16 18.80 0.080000 41.649648 41.62752893 0 0 0 0 0 0 0 0 STD5.60
2026-05-18 09:30:00 19 17.40 0.095000 41.649648 41.62752893 0 0 0 0 0 0 0 0 STD5.60
2026-05-18 09:24:58 22 17.70 0.110000 41.649648 41.62752893 0 0 0 0 0 0 0 0 STD5.60
2026-05-18 09:19:56 19 16.60 0.095000 41.649648 41.62752893 0 0 0 0 0 0 0 0 STD5.60
2026-05-18 09:14:54 17 14.50 0.085000 41.649648 41.62752893 0 0 0 0 0 0 0 0 STD5.60
2026-05-18 09:09:50 14 14.20 0.070000 41.649648 41.62752893 0 0 0 0 0 0 0 0 STD5.60
2026-05-18 09:04:49 15 16.20 0.075000 41.649648 41.62752893 0 0 0 0 0 0 0 0 STD5.60
2026-05-18 08:59:46 21 17.60 0.105000 41.649648 41.62752893 0 0 0 0 0 0 0 0 STD5.60
2026-05-18 08:49:42 20 18.50 0.100000 41.649648 41.62752893 0 0 0 0 0 0 0 0 STD5.60
2026-05-18 08:44:40 20 18.40 0.100000 41.649648 41.62752893 0 0 0 0 0 0 0 0 STD5.60
2026-05-18 08:39:38 28 18.90 0.140000 41.649648 41.62752893 0 0 0 0 0 0 0 0 STD5.60
2026-05-18 08:34:36 22 18.70 0.110000 41.649648 41.62752893 0 0 0 0 0 0 0 0 STD5.60
2026-05-18 08:29:33 26 15.60 0.130000 41.649648 41.62752893 0 0 0 0 0 0 0 0 STD5.60
2026-05-18 08:24:34 10 15.60 0.050000 41.649648 41.62752893 0 0 0 0 0 0 0 0 STD5.60
2026-05-18 08:19:29 18 18.30 0.090000 41.649648 41.62752893 0 0 0 0 0 0 0 0 STD5.60
2026-05-18 08:14:27 14 18.60 0.070000 41.649648 41.62752893 0 0 0 0 0 0 0 0 STD5.60
2026-05-18 08:09:23 12 17.40 0.060000 41.649648 41.62752893 0 0 0 0 0 0 0 0 STD5.60
2026-05-18 08:04:22 15 16.20 0.075000 41.649648 41.62752893 0 0 0 0 0 0 0 0 STD5.60
2026-05-18 07:59:19 14 17.00 0.070000 41.649648 41.62752893 0 0 0 0 0 0 0 0 STD5.60
2026-05-18 07:54:18 17 17.90 0.085000 41.649648 41.62752893 0 0 0 0 0 0 0 0 STD5.60
2026-05-18 07:49:15 20 18.80 0.100000 41.649648 41.62752893 0 0 0 0 0 0 0 0 STD5.60
2026-05-18 07:44:13 23 18.80 0.115000 41.649648 41.62752893 0 0 0 0 0 0 0 0 STD5.60
2026-05-18 07:39:12 22 18.20 0.110000 41.649648 41.62752893 0 0 0 0 0 0 0 0 STD5.60
2026-05-18 07:34:10 18 17.50 0.090000 41.649648 41.62752893 0 0 0 0 0 0 0 0 STD5.60
2026-05-18 07:29:07 22 16.20 0.110000 41.649648 41.62752893 0 0 0 0 0 0 0 0 STD5.60
2026-05-18 07:24:05 20 16.60 0.100000 41.649648 41.62752893 0 0 0 0 0 0 0 0 STD5.60
2026-05-18 07:19:03 13 18.30 0.065000 41.649648 41.62752893 0 0 0 0 0 0 0 0 STD5.60
2026-05-18 07:14:02 24 17.20 0.120000 41.649648 41.62752893 0 0 0 0 0 0 0 0 STD5.60
2026-05-18 07:08:57 12 16.30 0.060000 41.649648 41.62752893 0 0 0 0 0 0 0 0 STD5.60
2026-05-18 07:03:55 18 17.60 0.090000 41.649648 41.62752893 0 0 0 0 0 0 0 0 STD5.60
2026-05-18 06:58:53 16 18.70 0.080000 41.649648 41.62752893 0 0 0 0 0 0 0 0 STD5.60
2026-05-18 06:53:51 17 19.60 0.085000 41.649648 41.62752893 0 0 0 0 0 0 0 0 STD5.60
2026-05-18 06:48:49 16 19.30 0.080000 41.649648 41.62752893 0 0 0 0 0 0 0 0 STD5.60
2026-05-18 06:43:47 20 19.70 0.100000 41.649648 41.62752893 0 0 0 0 0 0 0 0 STD5.60
2026-05-18 06:38:45 20 20.70 0.100000 41.649648 41.62752893 0 0 0 0 0 0 0 0 STD5.60
2026-05-18 06:33:43 19 19.20 0.095000 41.649648 41.62752893 0 0 0 0 0 0 0 0 STD5.60
2026-05-18 06:28:41 20 18.50 0.100000 41.649648 41.62752893 0 0 0 0 0 0 0 0 STD5.60
2026-05-18 06:23:39 19 19.90 0.095000 41.649648 41.62752893 0 0 0 0 0 0 0 0 STD5.60
2026-05-18 06:18:37 28 20.20 0.140000 41.649648 41.62752893 0 0 0 0 0 0 0 0 STD5.60
2026-05-18 06:13:34 27 18.70 0.135000 41.649648 41.62752893 0 0 0 0 0 0 0 0 STD5.60
2026-05-18 06:08:31 23 18.50 0.115000 41.649648 41.62752893 0 0 0 0 0 0 0 0 STD5.60
2026-05-18 06:03:29 21 19.60 0.105000 41.649648 41.62752893 0 0 0 0 0 0 0 0 STD5.60
2026-05-18 05:58:27 19 20.10 0.095000 41.649648 41.62752893 0 0 0 0 0 0 0 0 STD5.60
2026-05-18 05:53:25 24 19.70 0.120000 41.649648 41.62752893 0 0 0 0 0 0 0 0 STD5.60
2026-05-18 05:48:23 18 19.10 0.090000 41.649648 41.62752893 0 0 0 0 0 0 0 0 STD5.60
2026-05-18 05:43:21 27 18.50 0.135000 41.649648 41.62752893 0 0 0 0 0 0 0 0 STD5.60
2026-05-18 05:38:18 12 18.40 0.060000 41.649648 41.62752893 0 0 0 0 0 0 0 0 STD5.60
2026-05-18 05:33:16 22 17.30 0.110000 41.649648 41.62752893 0 0 0 0 0 0 0 0 STD5.60
2026-05-18 05:28:14 9 18.90 0.045000 41.649648 41.62752893 0 0 0 0 0 0 0 0 STD5.60
2026-05-18 05:23:12 16 20.90 0.080000 41.649648 41.62752893 0 0 0 0 0 0 0 0 STD5.60
2026-05-18 05:18:10 24 18.20 0.120000 41.649648 41.62752893 0 0 0 0 0 0 0 0 STD5.60
2026-05-18 05:13:09 23 16.30 0.115000 41.649648 41.62752893 0 0 0 0 0 0 0 0 STD5.60
2026-05-18 05:08:05 15 14.90 0.075000 41.649648 41.62752893 0 0 0 0 0 0 0 0 STD5.60
2026-05-18 05:03:03 9 17.40 0.045000 41.649648 41.62752893 0 0 0 0 0 0 0 0 STD5.60
2026-05-18 04:58:01 20 20.30 0.100000 41.649648 41.62752893 0 0 0 0 0 0 0 0 STD5.60
2026-05-18 04:52:59 26 19.00 0.130000 41.649648 41.62752893 0 0 0 0 0 0 0 0 STD5.60
2026-05-18 04:47:57 21 18.20 0.105000 41.649648 41.62752893 0 0 0 0 0 0 0 0 STD5.60
2026-05-18 04:42:55 19 19.40 0.095000 41.649648 41.62752893 0 0 0 0 0 0 0 0 STD5.60
2026-05-18 04:37:52 25 17.90 0.125000 41.649648 41.62752893 0 0 0 0 0 0 0 0 STD5.60
2026-05-18 04:32:51 13 17.50 0.065000 41.649648 41.62752893 0 0 0 0 0 0 0 0 STD5.60
2026-05-18 04:27:48 17 18.30 0.085000 41.649648 41.62752893 0 0 0 0 0 0 0 0 STD5.60
2026-05-18 04:22:46 26 17.40 0.130000 41.649648 41.62752893 0 0 0 0 0 0 0 0 STD5.60
2026-05-18 04:17:44 11 17.20 0.055000 41.649648 41.62752893 0 0 0 0 0 0 0 0 STD5.60
2026-05-18 04:12:42 17 19.20 0.085000 41.649648 41.62752893 0 0 0 0 0 0 0 0 STD5.60
2026-05-18 04:07:38 27 19.10 0.135000 41.649648 41.62752893 0 0 0 0 0 0 0 0 STD5.60
2026-05-18 04:02:36 16 16.50 0.080000 41.649648 41.62752893 0 0 0 0 0 0 0 0 STD5.60
2026-05-18 03:57:34 11 16.80 0.055000 41.649648 41.62752893 0 0 0 0 0 0 0 0 STD5.60
2026-05-18 03:52:32 18 17.70 0.090000 41.649648 41.62752893 0 0 0 0 0 0 0 0 STD5.60
2026-05-18 03:47:30 19 17.40 0.095000 41.649648 41.62752893 0 0 0 0 0 0 0 0 STD5.60
2026-05-18 03:42:27 16 16.90 0.080000 41.649648 41.62752893 0 0 0 0 0 0 0 0 STD5.60
2026-05-18 03:37:25 16 18.00 0.080000 41.649648 41.62752893 0 0 0 0 0 0 0 0 STD5.60
2026-05-18 03:32:23 15 18.00 0.075000 41.649648 41.62752893 0 0 0 0 0 0 0 0 STD5.60
2026-05-18 03:27:21 11 17.10 0.055000 41.649648 41.62752893 0 0 0 0 0 0 0 0 STD5.60
2026-05-18 03:22:19 19 17.90 0.095000 41.649648 41.62752893 0 0 0 0 0 0 0 0 STD5.60
2026-05-18 03:17:17 18 18.20 0.090000 41.649648 41.62752893 0 0 0 0 0 0 0 0 STD5.60
2026-05-18 03:12:15 25 19.30 0.125000 41.649648 41.62752893 0 0 0 0 0 0 0 0 STD5.60
2026-05-18 03:07:11 18 19.80 0.090000 41.649648 41.62752893 0 0 0 0 0 0 0 0 STD5.60
2026-05-18 03:02:09 23 18.00 0.115000 41.649648 41.62752893 0 0 0 0 0 0 0 0 STD5.60
2026-05-18 02:57:07 16 17.50 0.080000 41.649648 41.62752893 0 0 0 0 0 0 0 0 STD5.60
2026-05-18 02:52:05 14 19.30 0.070000 41.649648 41.62752893 0 0 0 0 0 0 0 0 STD5.60
2026-05-18 02:47:03 27 18.70 0.135000 41.649648 41.62752893 0 0 0 0 0 0 0 0 STD5.60
2026-05-18 02:42:01 12 16.10 0.060000 41.649648 41.62752893 0 0 0 0 0 0 0 0 STD5.60
2026-05-18 02:36:59 9 16.20 0.045000 41.649648 41.62752893 0 0 0 0 0 0 0 0 STD5.60
2026-05-18 02:31:57 16 17.40 0.080000 41.649648 41.62752893 0 0 0 0 0 0 0 0 STD5.60
2026-05-18 02:26:55 14 18.30 0.070000 41.649648 41.62752893 0 0 0 0 0 0 0 0 STD5.60
2026-05-18 02:21:53 16 17.60 0.080000 41.649648 41.62752893 0 0 0 0 0 0 0 0 STD5.60
2026-05-18 02:16:51 14 16.30 0.070000 41.649648 41.62752893 0 0 0 0 0 0 0 0 STD5.60
2026-05-18 02:11:49 16 16.90 0.080000 41.649648 41.62752893 0 0 0 0 0 0 0 0 STD5.60
2026-05-18 02:06:45 11 18.70 0.055000 41.649648 41.62752893 0 0 0 0 0 0 0 0 STD5.60
2026-05-18 02:01:43 20 20.00 0.100000 41.649648 41.62752893 0 0 0 0 0 0 0 0 STD5.60
2026-05-18 01:56:41 21 18.90 0.105000 41.649648 41.62752893 0 0 0 0 0 0 0 0 STD5.60
2026-05-18 01:51:39 13 17.00 0.065000 41.649648 41.62752893 0 0 0 0 0 0 0 0 STD5.60
2026-05-18 01:46:37 18 18.80 0.090000 41.649648 41.62752893 0 0 0 0 0 0 0 0 STD5.60
2026-05-18 01:41:35 24 19.60 0.120000 41.649648 41.62752893 0 0 0 0 0 0 0 0 STD5.60
2026-05-18 01:36:32 20 17.00 0.100000 41.649648 41.62752893 0 0 0 0 0 0 0 0 STD5.60
2026-05-18 01:31:30 11 17.20 0.055000 41.649648 41.62752893 0 0 0 0 0 0 0 0 STD5.60
2026-05-18 01:26:28 19 17.60 0.095000 41.649648 41.62752893 0 0 0 0 0 0 0 0 STD5.60
2026-05-18 01:21:26 18 17.90 0.090000 41.649648 41.62752893 0 0 0 0 0 0 0 0 STD5.60
2026-05-18 01:16:24 19 18.80 0.095000 41.649648 41.62752893 0 0 0 0 0 0 0 0 STD5.60
2026-05-18 01:11:22 17 19.00 0.085000 41.649648 41.62752893 0 0 0 0 0 0 0 0 STD5.60
2026-05-18 01:06:18 15 19.50 0.075000 41.649648 41.62752893 0 0 0 0 0 0 0 0 STD5.60
2026-05-18 01:01:18 24 18.50 0.120000 41.649648 41.62752893 0 0 0 0 0 0 0 0 STD5.60
2026-05-18 00:56:14 11 17.10 0.055000 41.649648 41.62752893 0 0 0 0 0 0 0 0 STD5.60
2026-05-18 00:51:12 15 16.10 0.075000 41.649648 41.62752893 0 0 0 0 0 0 0 0 STD5.60
2026-05-18 00:46:10 15 15.80 0.075000 41.649648 41.62752893 0 0 0 0 0 0 0 0 STD5.60
2026-05-18 00:41:11 11 15.80 0.055000 41.649648 41.62752893 0 0 0 0 0 0 0 0 STD5.60
2026-05-18 00:36:07 17 16.60 0.085000 41.649648 41.62752893 0 0 0 0 0 0 0 0 STD5.60
2026-05-18 00:31:06 19 17.70 0.095000 41.649648 41.62752893 0 0 0 0 0 0 0 0 STD5.60
2026-05-18 00:26:02 12 16.20 0.060000 41.649648 41.62752893 0 0 0 0 0 0 0 0 STD5.60
2026-05-18 00:21:01 13 15.10 0.065000 41.649648 41.62752893 0 0 0 0 0 0 0 0 STD5.60
2026-05-18 00:15:59 11 16.70 0.055000 41.649648 41.62752893 0 0 0 0 0 0 0 0 STD5.60
2026-05-18 00:10:57 16 18.80 0.080000 41.649648 41.62752893 0 0 0 0 0 0 0 0 STD5.60
2026-05-18 00:05:53 20 21.00 0.100000 41.649648 41.62752893 0 0 0 0 0 0 0 0 STD5.60
2026-05-18 00:00:53 22 19.70 0.110000 41.649648 41.62752893 0 0 0 0 0 0 0 0 STD5.60
2026-05-17 23:55:48 16 17.70 0.080000 41.649648 41.62752893 0 0 0 0 0 0 0 0 STD5.60
2026-05-17 23:50:47 19 17.60 0.095000 41.649648 41.62752893 0 0 0 0 0 0 0 0 STD5.60
2026-05-17 23:45:44 21 17.90 0.105000 41.649648 41.62752893 0 0 0 0 0 0 0 0 STD5.60
2026-05-17 23:40:42 19 18.90 0.095000 41.649648 41.62752893 0 0 0 0 0 0 0 0 STD5.60
2026-05-17 23:35:40 14 18.60 0.070000 41.649648 41.62752893 0 0 0 0 0 0 0 0 STD5.60
2026-05-17 23:30:39 25 18.30 0.125000 41.649648 41.62752893 0 0 0 0 0 0 0 0 STD5.60
2026-05-17 23:25:36 18 17.70 0.090000 41.649648 41.62752893 0 0 0 0 0 0 0 0 STD5.60
2026-05-17 23:20:34 16 17.10 0.080000 41.649648 41.62752893 0 0 0 0 0 0 0 0 STD5.60
2026-05-17 23:15:32 11 18.80 0.055000 41.649648 41.62752893 0 0 0 0 0 0 0 0 STD5.60
2026-05-17 23:10:30 23 18.70 0.115000 41.649648 41.62752893 0 0 0 0 0 0 0 0 STD5.60
2026-05-17 23:05:25 21 17.30 0.105000 41.649648 41.62752893 0 0 0 0 0 0 0 0 STD5.60
2026-05-17 23:00:24 21 16.80 0.105000 41.649648 41.62752893 0 0 0 0 0 0 0 0 STD5.60
2026-05-17 22:55:21 26 14.50 0.130000 41.649648 41.62752893 0 0 0 0 0 0 0 0 STD5.60
2026-05-17 22:50:20 15 15.60 0.075000 41.649648 41.62752893 0 0 0 0 0 0 0 0 STD5.60
2026-05-17 22:45:18 16 17.10 0.080000 41.649648 41.62752893 0 0 0 0 0 0 0 0 STD5.60
2026-05-17 22:40:15 14 16.30 0.070000 41.649648 41.62752893 0 0 0 0 0 0 0 0 STD5.60
2026-05-17 22:35:14 21 16.60 0.105000 41.649648 41.62752893 0 0 0 0 0 0 0 0 STD5.60
2026-05-17 22:30:12 12 16.20 0.060000 41.649648 41.62752893 0 0 0 0 0 0 0 0 STD5.60
2026-05-17 22:25:09 20 16.10 0.100000 41.649648 41.62752893 0 0 0 0 0 0 0 0 STD5.60
2026-05-17 22:20:07 17 17.40 0.085000 41.649648 41.62752893 0 0 0 0 0 0 0 0 STD5.60
2026-05-17 22:15:05 19 17.50 0.095000 41.649648 41.62752893 0 0 0 0 0 0 0 0 STD5.60
2026-05-17 22:10:03 18 17.60 0.090000 41.649648 41.62752893 0 0 0 0 0 0 0 0 STD5.60
2026-05-17 22:04:59 17 17.60 0.085000 41.649648 41.62752893 0 0 0 0 0 0 0 0 STD5.60
2026-05-17 21:59:57 21 17.80 0.105000 41.649648 41.62752893 0 0 0 0 0 0 0 0 STD5.60
2026-05-17 21:54:55 20 19.30 0.100000 41.649648 41.62752893 0 0 0 0 0 0 0 0 STD5.60
2026-05-17 21:49:53 18 19.80 0.090000 41.649648 41.62752893 0 0 0 0 0 0 0 0 STD5.60
2026-05-17 21:44:51 24 17.90 0.120000 41.649648 41.62752893 0 0 0 0 0 0 0 0 STD5.60
2026-05-17 21:39:48 23 17.60 0.115000 41.649648 41.62752893 0 0 0 0 0 0 0 0 STD5.60
2026-05-17 21:34:46 22 17.80 0.110000 41.649648 41.62752893 0 0 0 0 0 0 0 0 STD5.60
2026-05-17 21:29:45 16 17.10 0.080000 41.649648 41.62752893 0 0 0 0 0 0 0 0 STD5.60
2026-05-17 21:24:42 23 18.70 0.115000 41.649648 41.62752893 0 0 0 0 0 0 0 0 STD5.60
2026-05-17 21:19:40 17 19.10 0.085000 41.649648 41.62752893 0 0 0 0 0 0 0 0 STD5.60
2026-05-17 21:14:38 23 18.30 0.115000 41.649648 41.62752893 0 0 0 0 0 0 0 0 STD5.60
2026-05-17 21:09:36 22 16.20 0.110000 41.649648 41.62752893 0 0 0 0 0 0 0 0 STD5.60
2026-05-17 21:04:32 16 16.20 0.080000 41.649648 41.62752893 0 0 0 0 0 0 0 0 STD5.60
2026-05-17 20:59:30 16 19.00 0.080000 41.649648 41.62752893 0 0 0 0 0 0 0 0 STD5.60
2026-05-17 20:54:28 24 19.80 0.120000 41.649648 41.62752893 0 0 0 0 0 0 0 0 STD5.60
2026-05-17 20:49:26 20 20.30 0.100000 41.649648 41.62752893 0 0 0 0 0 0 0 0 STD5.60
2026-05-17 20:44:24 21 20.10 0.105000 41.649648 41.62752893 0 0 0 0 0 0 0 0 STD5.60
2026-05-17 20:39:22 16 18.00 0.080000 41.649648 41.62752893 0 0 0 0 0 0 0 0 STD5.60
2026-05-17 20:34:20 21 17.60 0.105000 41.649648 41.62752893 0 0 0 0 0 0 0 0 STD5.60
2026-05-17 20:29:18 13 17.30 0.065000 41.649648 41.62752893 0 0 0 0 0 0 0 0 STD5.60
2026-05-17 20:24:16 7 16.60 0.035000 41.649648 41.62752893 0 0 0 0 0 0 0 0 STD5.60
2026-05-17 20:19:14 16 15.40 0.080000 41.649648 41.62752893 0 0 0 0 0 0 0 0 STD5.60
2026-05-17 20:14:12 14 16.70 0.070000 41.649648 41.62752893 0 0 0 0 0 0 0 0 STD5.60
2026-05-17 20:09:07 22 17.80 0.110000 41.649648 41.62752893 0 0 0 0 0 0 0 0 STD5.60
2026-05-17 20:04:05 20 16.60 0.100000 41.649648 41.62752893 0 0 0 0 0 0 0 0 STD5.60
2026-05-17 19:59:02 17 17.90 0.085000 41.649648 41.62752893 0 0 0 0 0 0 0 0 STD5.60
2026-05-17 19:54:01 19 18.60 0.095000 41.649648 41.62752893 0 0 0 0 0 0 0 0 STD5.60
2026-05-17 19:48:58 15 16.80 0.075000 41.649648 41.62752893 0 0 0 0 0 0 0 0 STD5.60
2026-05-17 19:43:56 21 17.20 0.105000 41.649648 41.62752893 0 0 0 0 0 0 0 0 STD5.60
2026-05-17 19:38:54 21 17.50 0.105000 41.649648 41.62752893 0 0 0 0 0 0 0 0 STD5.60
2026-05-17 19:33:51 14 17.50 0.070000 41.649648 41.62752893 0 0 0 0 0 0 0 0 STD5.60
2026-05-17 19:28:50 25 18.00 0.125000 41.649648 41.62752893 0 0 0 0 0 0 0 0 STD5.60
2026-05-17 19:23:47 15 18.30 0.075000 41.649648 41.62752893 0 0 0 0 0 0 0 0 STD5.60
2026-05-17 19:18:45 16 18.20 0.080000 41.649648 41.62752893 0 0 0 0 0 0 0 0 STD5.60
2026-05-17 19:13:44 18 17.50 0.090000 41.649648 41.62752893 0 0 0 0 0 0 0 0 STD5.60
2026-05-17 19:08:38 16 17.80 0.080000 41.649648 41.62752893 0 0 0 0 0 0 0 0 STD5.60
2026-05-17 19:03:36 20 18.00 0.100000 41.649648 41.62752893 0 0 0 0 0 0 0 0 STD5.60
2026-05-17 18:58:34 18 18.50 0.090000 41.649648 41.62752893 0 0 0 0 0 0 0 0 STD5.60
2026-05-17 18:53:32 17 18.20 0.085000 41.649648 41.62752893 0 0 0 0 0 0 0 0 STD5.60
2026-05-17 18:48:30 12 16.30 0.060000 41.649648 41.62752893 0 0 0 0 0 0 0 0 STD5.60
2026-05-17 18:43:28 13 18.20 0.065000 41.649648 41.62752893 0 0 0 0 0 0 0 0 STD5.60
2026-05-17 18:38:26 19 20.30 0.095000 41.649648 41.62752893 0 0 0 0 0 0 0 0 STD5.60
2026-05-17 18:33:24 18 18.20 0.090000 41.649648 41.62752893 0 0 0 0 0 0 0 0 STD5.60
2026-05-17 18:28:22 13 16.10 0.065000 41.649648 41.62752893 0 0 0 0 0 0 0 0 STD5.60
2026-05-17 18:23:20 14 17.50 0.070000 41.649648 41.62752893 0 0 0 0 0 0 0 0 STD5.60
2026-05-17 18:18:17 22 18.30 0.110000 41.649648 41.62752893 0 0 0 0 0 0 0 0 STD5.60
2026-05-17 18:13:15 16 18.60 0.080000 41.649648 41.62752893 0 0 0 0 0 0 0 0 STD5.60
2026-05-17 18:08:10 22 18.10 0.110000 41.649648 41.62752893 0 0 0 0 0 0 0 0 STD5.60
2026-05-17 18:03:08 16 15.20 0.080000 41.649648 41.62752893 0 0 0 0 0 0 0 0 STD5.60
2026-05-17 17:58:07 15 17.70 0.075000 41.649648 41.62752893 0 0 0 0 0 0 0 0 STD5.60
2026-05-17 17:53:04 13 18.70 0.065000 41.649648 41.62752893 0 0 0 0 0 0 0 0 STD5.60
2026-05-17 17:48:02 19 16.50 0.095000 41.649648 41.62752893 0 0 0 0 0 0 0 0 STD5.60
2026-05-17 17:42:59 20 17.30 0.100000 41.649648 41.62752893 0 0 0 0 0 0 0 0 STD5.60
2026-05-17 17:37:57 25 20.50 0.125000 41.649648 41.62752893 0 0 0 0 0 0 0 0 STD5.60
2026-05-17 17:32:55 20 20.50 0.100000 41.649648 41.62752893 0 0 0 0 0 0 0 0 STD5.60
2026-05-17 17:27:54 19 16.60 0.095000 41.649648 41.62752893 0 0 0 0 0 0 0 0 STD5.60
2026-05-17 17:22:51 12 16.70 0.060000 41.649648 41.62752893 0 0 0 0 0 0 0 0 STD5.60
2026-05-17 17:17:49 21 17.30 0.105000 41.649648 41.62752893 0 0 0 0 0 0 0 0 STD5.60
2026-05-17 17:12:47 15 15.50 0.075000 41.649648 41.62752893 0 0 0 0 0 0 0 0 STD5.60
2026-05-17 17:07:42 13 16.60 0.065000 41.649648 41.62752893 0 0 0 0 0 0 0 0 STD5.60
2026-05-17 17:02:40 23 18.40 0.115000 41.649648 41.62752893 0 0 0 0 0 0 0 0 STD5.60
2026-05-17 16:57:38 15 19.10 0.075000 41.649648 41.62752893 0 0 0 0 0 0 0 0 STD5.60
2026-05-17 16:52:36 19 21.30 0.095000 41.649648 41.62752893 0 0 0 0 0 0 0 0 STD5.60
2026-05-17 16:47:34 16 21.40 0.080000 41.649648 41.62752893 0 0 0 0 0 0 0 0 STD5.60
2026-05-17 16:42:31 24 17.90 0.120000 41.649648 41.62752893 0 0 0 0 0 0 0 0 STD5.60
Geiger Counter World Map       A real time radiation map.     Copyright 2015 All rights reserved.